QPF
0.00 0.00 0.00 0.00 0.00 0.00 0.00 0.00 0.00 0.00 0.00 0.00 0.00 0.00 0.00 0.01 0.01 0.01 0.01 0.01 0.01 0.01 0.01 0.01 0.01 0.01 0.01 0.01 0.01 0.00 0.00 0.00 0.00 0.00 0.00 0.00 0.01 0.01 0.01 0.00 0.00 0.00 0.01
0.00 0.00 0.00 0.00 0.00 0.00 0.00 0.00 0.00 0.00 0.00 0.00 0.00 0.00 0.00 0.00 0.00 0.01 0.01 0.01 0.01 0.01 0.01 0.01 0.01 0.01 0.01 0.01 0.01 0.00 0.00 0.00 0.00 0.00 0.00 0.00 0.00 0.01 0.01 0.01 0.01 0.01 0.01
0.00 0.00 0.00 0.00 0.00 0.00 0.00 0.00 0.00 0.00 0.00 0.00 0.00 0.00 0.00 0.00 0.00 0.00 0.00 0.00 0.01 0.01 0.01 0.00 0.00 0.00 0.00 0.00 0.00 0.00 0.00 0.00 0.00 0.00 0.00 0.00 0.00 0.01 0.01 0.01 0.01 0.01 0.01
0.00 0.00 0.00 0.00 0.00 0.00 0.00 0.00 0.00 0.00 0.00 0.00 0.00 0.00 0.00 0.00 0.00 0.00 0.00 0.00 0.00 0.00 0.00 0.00 0.00 0.00 0.00 0.00 0.00 0.00 0.00 0.00 0.00 0.00 0.00 0.00 0.00 0.01 0.01 0.01 0.01 0.01 0.01
0.00 0.00 0.00 0.00 0.00 0.00 0.00 0.00 0.00 0.00 0.00 0.00 0.00 0.00 0.00 0.00 0.00 0.00 0.00 0.00 0.00 0.00 0.00 0.00 0.00 0.00 0.00 0.00 0.00 0.00 0.00 0.00 0.00 0.00 0.00 0.00 0.00 0.01 0.01 0.01 0.01 0.01 0.01
0.00 0.00 0.00 0.00 0.00 0.00 0.00 0.00 0.00 0.00 0.00 0.00 0.00 0.00 0.00 0.00 0.00 0.00 0.00 0.00 0.00 0.00 0.00 0.00 0.00 0.00 0.00 0.00 0.00 0.00 0.00 0.00 0.00 0.00 0.00 0.00 0.00 0.00 0.01 0.01 0.01 0.01 0.01
0.00 0.00 0.00 0.00 0.00 0.00 0.00 0.00 0.00 0.00 0.00 0.00 0.00 0.00 0.00 0.00 0.00 0.00 0.00 0.00 0.00 0.00 0.00 0.00 0.00 0.00 0.00 0.00 0.00 0.00 0.00 0.00 0.00 0.00 0.00 0.00 0.00 0.00 0.00 0.00 0.00 0.01 0.01
0.00 0.00 0.00 0.00 0.00 0.00 0.00 0.00 0.00 0.00 0.00 0.00 0.00 0.00 0.00 0.00 0.00 0.00 0.00 0.00 0.00 0.00 0.00 0.00 0.00 0.00 0.00 0.00 0.00 0.00 0.00 0.00 0.00 0.00 0.00 0.00 0.00 0.00 0.00 0.00 0.00 0.00 0.00
0.00 0.00 0.00 0.00 0.00 0.00 0.00 0.00 0.00 0.00 0.00 0.00 0.00 0.00 0.00 0.00 0.00 0.00 0.00 0.00 0.00 0.00 0.00 0.00 0.00 0.00 0.00 0.00 0.00 0.00 0.00 0.00 0.00 0.00 0.00 0.00 0.00 0.00 0.00 0.00 0.00 0.00 0.00
0.00 0.00 0.00 0.00 0.00 0.00 0.00 0.00 0.00 0.00 0.00 0.00 0.00 0.00 0.00 0.00 0.00 0.00 0.00 0.00 0.00 0.00 0.00 0.00 0.00 0.00 0.00 0.00 0.00 0.00 0.00 0.00 0.00 0.00 0.00 0.00 0.00 0.00 0.00 0.00 0.00 0.00 0.00
0.00 0.00 0.00 0.00 0.00 0.00 0.00 0.00 0.00 0.00 0.00 0.00 0.00 0.00 0.00 0.00 0.00 0.00 0.00 0.00 0.00 0.00 0.00 0.00 0.00 0.00 0.00 0.00 0.00 0.00 0.00 0.00 0.00 0.00 0.00 0.00 0.00 0.00 0.00 0.00 0.00 0.00 0.00
0.00 0.00 0.00 0.00 0.00 0.00 0.00 0.00 0.00 0.00 0.00 0.00 0.00 0.00 0.00 0.00 0.00 0.00 0.00 0.00 0.00 0.00 0.00 0.00 0.00 0.00 0.00 0.00 0.00 0.00 0.00 0.00 0.00 0.00 0.00 0.00 0.00 0.00 0.00 0.00 0.00 0.00 0.00
0.00 0.00 0.00 0.00 0.00 0.00 0.00 0.00 0.00 0.00 0.00 0.00 0.00 0.00 0.00 0.00 0.00 0.00 0.00 0.00 0.00 0.00 0.00 0.00 0.00 0.00 0.00 0.00 0.00 0.00 0.00 0.00 0.00 0.00 0.00 0.00 0.00 0.00 0.00 0.00 0.00 0.00 0.00
0.00 0.00 0.00 0.00 0.00 0.00 0.00 0.00 0.00 0.00 0.00 0.00 0.00 0.00 0.00 0.00 0.00 0.00 0.00 0.00 0.00 0.00 0.00 0.00 0.00 0.00 0.00 0.00 0.00 0.00 0.00 0.00 0.00 0.00 0.00 0.00 0.00 0.00 0.00 0.00 0.00 0.00 0.00
0.00 0.00 0.00 0.00 0.00 0.00 0.00 0.00 0.00 0.00 0.00 0.00 0.00 0.00 0.00 0.00 0.00 0.00 0.00 0.00 0.00 0.00 0.00 0.00 0.00 0.00 0.00 0.00 0.00 0.00 0.00 0.00 0.00 0.00 0.00 0.00 0.00 0.00 0.00 0.00 0.00 0.00 0.00
0.00 0.00 0.00 0.00 0.00 0.00 0.00 0.00 0.00 0.00 0.00 0.00 0.00 0.00 0.00 0.00 0.00 0.00 0.00 0.00 0.00 0.00 0.00 0.00 0.00 0.00 0.00 0.00 0.00 0.00 0.00 0.00 0.00 0.00 0.00 0.00 0.00 0.00 0.00 0.00 0.00 0.00 0.00
0.00 0.00 0.00 0.00 0.00 0.00 0.00 0.00 0.00 0.00 0.00 0.00 0.00 0.00 0.00 0.00 0.00 0.00 0.00 0.00 0.00 0.00 0.00 0.00 0.00 0.00 0.00 0.00 0.00 0.00 0.00 0.00 0.00 0.00 0.00 0.00 0.00 0.00 0.00 0.00 0.00 0.00 0.00
0.00 0.00 0.00 0.00 0.00 0.00 0.00 0.00 0.00 0.00 0.00 0.00 0.00 0.00 0.00 0.00 0.00 0.00 0.00 0.00 0.00 0.00 0.00 0.00 0.00 0.00 0.00 0.00 0.00 0.00 0.00 0.00 0.00 0.00 0.00 0.00 0.00 0.00 0.00 0.00 0.00 0.00 0.00
0.00 0.00 0.00 0.00 0.00 0.00 0.00 0.00 0.00 0.00 0.00 0.00 0.00 0.00 0.00 0.00 0.00 0.00 0.00 0.00 0.00 0.00 0.00 0.00 0.00 0.00 0.00 0.00 0.00 0.00 0.00 0.00 0.00 0.00 0.00 0.00 0.00 0.00 0.00 0.00 0.00 0.00 0.00
0.00 0.00 0.00 0.00 0.00 0.00 0.00 0.00 0.00 0.00 0.00 0.00 0.00 0.00 0.00 0.00 0.00 0.00 0.00 0.00 0.00 0.00 0.00 0.00 0.00 0.00 0.00 0.00 0.00 0.00 0.00 0.00 0.00 0.00 0.00 0.00 0.00 0.00 0.00 0.00 0.00 0.00 0.00
0.00 0.00 0.00 0.00 0.00 0.00 0.00 0.00 0.00 0.00 0.00 0.00 0.00 0.00 0.00 0.00 0.00 0.00 0.00 0.00 0.00 0.00 0.00 0.00 0.00 0.00 0.00 0.00 0.00 0.00 0.00 0.00 0.00 0.00 0.00 0.00 0.00 0.00 0.00 0.00 0.00 0.00 0.00
0.00 0.00 0.00 0.00 0.00 0.00 0.00 0.00 0.00 0.00 0.00 0.00 0.00 0.00 0.00 0.00 0.00 0.00 0.00 0.00 0.00 0.00 0.00 0.00 0.00 0.00 0.00 0.00 0.00 0.00 0.00 0.00 0.00 0.00 0.00 0.00 0.00 0.00 0.00 0.00 0.00 0.00 0.00
0.00 0.00 0.00 0.00 0.00 0.00 0.00 0.00 0.00 0.00 0.00 0.00 0.00 0.00 0.00 0.00 0.00 0.00 0.00 0.00 0.00 0.00 0.00 0.00 0.00 0.00 0.00 0.00 0.00 0.00 0.00 0.00 0.00 0.00 0.00 0.00 0.00 0.00 0.00 0.00 0.00 0.00 0.00
0.00 0.00 0.00 0.00 0.00 0.00 0.00 0.00 0.00 0.00 0.00 0.00 0.00 0.00 0.00 0.00 0.00 0.00 0.00 0.00 0.00 0.00 0.00 0.00 0.00 0.00 0.00 0.00 0.00 0.00 0.00 0.00 0.00 0.00 0.00 0.00 0.00 0.00 0.00 0.00 0.00 0.00 0.00
0.00 0.00 0.00 0.00 0.00 0.00 0.00 0.00 0.00 0.00 0.00 0.00 0.00 0.00 0.00 0.00 0.00 0.00 0.00 0.00 0.00 0.00 0.00 0.00 0.00 0.00 0.00 0.00 0.00 0.00 0.00 0.00 0.00 0.00 0.00 0.00 0.00 0.00 0.00 0.00 0.00 0.00 0.00
0.00 0.00 0.00 0.00 0.00 0.00 0.00 0.00 0.00 0.00 0.00 0.00 0.00 0.00 0.00 0.00 0.00 0.00 0.00 0.00 0.00 0.00 0.00 0.00 0.00 0.00 0.00 0.00 0.00 0.00 0.00 0.00 0.00 0.00 0.00 0.00 0.00 0.00 0.00 0.00 0.00 0.00 0.00
MSLP
1020.65 1020.97 1021.29 1021.62 1021.99 1022.37 1022.75 1023.09 1023.36 1023.56 1023.68 1023.74 1023.77 1023.81 1023.88 1023.98 1024.10 1024.23 1024.35 1024.44 1024.49 1024.53 1024.55 1024.59 1024.66 1024.75 1024.87 1024.98 1025.06 1025.07 1024.98 1024.81 1024.57 1024.27 1023.97 1023.69 1023.45 1023.28 1023.14 1023.04 1022.93 1022.81 1022.65
1020.08 1020.45 1020.85 1021.28 1021.74 1022.20 1022.63 1023.01 1023.30 1023.51 1023.65 1023.74 1023.83 1023.94 1024.09 1024.27 1024.47 1024.66 1024.81 1024.91 1024.96 1024.97 1024.96 1024.96 1025.00 1025.08 1025.18 1025.29 1025.38 1025.40 1025.34 1025.20 1024.99 1024.72 1024.45 1024.19 1023.96 1023.78 1023.63 1023.51 1023.39 1023.25 1023.09
1019.64 1020.05 1020.51 1021.01 1021.54 1022.06 1022.54 1022.95 1023.27 1023.50 1023.67 1023.80 1023.95 1024.12 1024.34 1024.59 1024.85 1025.08 1025.24 1025.34 1025.37 1025.34 1025.29 1025.26 1025.26 1025.31 1025.40 1025.51 1025.60 1025.64 1025.61 1025.51 1025.34 1025.12 1024.88 1024.65 1024.43 1024.24 1024.08 1023.93 1023.79 1023.64 1023.48
1019.33 1019.78 1020.29 1020.84 1021.43 1021.99 1022.51 1022.95 1023.29 1023.54 1023.74 1023.92 1024.11 1024.33 1024.60 1024.89 1025.17 1025.41 1025.58 1025.67 1025.67 1025.62 1025.55 1025.48 1025.46 1025.49 1025.57 1025.67 1025.76 1025.82 1025.83 1025.77 1025.65 1025.48 1025.28 1025.08 1024.87 1024.67 1024.49 1024.31 1024.14 1023.98 1023.82
1019.15 1019.63 1020.17 1020.76 1021.38 1021.98 1022.53 1022.98 1023.34 1023.62 1023.85 1024.05 1024.27 1024.53 1024.82 1025.12 1025.41 1025.64 1025.80 1025.88 1025.87 1025.82 1025.74 1025.67 1025.65 1025.67 1025.73 1025.83 1025.93 1026.00 1026.04 1026.01 1025.94 1025.82 1025.66 1025.47 1025.27 1025.06 1024.85 1024.64 1024.44 1024.25 1024.09
1019.05 1019.54 1020.10 1020.72 1021.36 1021.98 1022.54 1023.01 1023.39 1023.69 1023.94 1024.17 1024.41 1024.67 1024.96 1025.26 1025.53 1025.76 1025.92 1025.99 1026.00 1025.97 1025.91 1025.87 1025.86 1025.89 1025.95 1026.04 1026.13 1026.21 1026.25 1026.26 1026.22 1026.13 1026.00 1025.83 1025.63 1025.41 1025.17 1024.92 1024.69 1024.48 1024.32
1018.97 1019.46 1020.02 1020.64 1021.29 1021.91 1022.49 1022.98 1023.38 1023.70 1023.97 1024.22 1024.47 1024.74 1025.03 1025.31 1025.57 1025.79 1025.95 1026.05 1026.10 1026.11 1026.10 1026.10 1026.12 1026.17 1026.23 1026.31 1026.38 1026.45 1026.48 1026.49 1026.47 1026.41 1026.30 1026.15 1025.95 1025.72 1025.45 1025.17 1024.92 1024.69 1024.52
1018.85 1019.33 1019.87 1020.48 1021.12 1021.74 1022.32 1022.83 1023.25 1023.61 1023.92 1024.19 1024.47 1024.74 1025.03 1025.31 1025.56 1025.79 1025.97 1026.10 1026.20 1026.27 1026.32 1026.38 1026.43 1026.49 1026.55 1026.61 1026.65 1026.68 1026.69 1026.69 1026.67 1026.62 1026.53 1026.40 1026.21 1025.98 1025.70 1025.41 1025.13 1024.89 1024.71
1018.68 1019.13 1019.64 1020.22 1020.83 1021.44 1022.01 1022.54 1023.00 1023.40 1023.75 1024.07 1024.38 1024.69 1024.99 1025.28 1025.55 1025.79 1026.00 1026.17 1026.32 1026.45 1026.56 1026.66 1026.75 1026.81 1026.85 1026.87 1026.87 1026.86 1026.84 1026.81 1026.79 1026.75 1026.69 1026.58 1026.41 1026.19 1025.93 1025.63 1025.35 1025.10 1024.92
1018.45 1018.85 1019.32 1019.85 1020.43 1021.01 1021.59 1022.12 1022.62 1023.07 1023.48 1023.87 1024.24 1024.60 1024.94 1025.25 1025.54 1025.81 1026.04 1026.25 1026.44 1026.62 1026.77 1026.90 1027.00 1027.06 1027.08 1027.05 1027.00 1026.94 1026.89 1026.84 1026.81 1026.78 1026.74 1026.67 1026.54 1026.36 1026.12 1025.85 1025.57 1025.32 1025.13
1018.15 1018.51 1018.94 1019.42 1019.96 1020.51 1021.07 1021.62 1022.15 1022.65 1023.14 1023.60 1024.05 1024.47 1024.86 1025.22 1025.54 1025.83 1026.09 1026.32 1026.53 1026.73 1026.90 1027.04 1027.13 1027.17 1027.16 1027.10 1027.01 1026.92 1026.83 1026.77 1026.74 1026.73 1026.72 1026.69 1026.61 1026.47 1026.28 1026.04 1025.78 1025.55 1025.35
1017.79 1018.13 1018.52 1018.96 1019.45 1019.98 1020.52 1021.07 1021.63 1022.18 1022.73 1023.27 1023.79 1024.28 1024.73 1025.14 1025.49 1025.80 1026.07 1026.31 1026.53 1026.72 1026.89 1027.02 1027.10 1027.13 1027.10 1027.02 1026.91 1026.79 1026.69 1026.62 1026.60 1026.61 1026.63 1026.64 1026.61 1026.53 1026.39 1026.20 1025.97 1025.75 1025.56
1017.35 1017.69 1018.07 1018.49 1018.95 1019.45 1019.97 1020.52 1021.09 1021.68 1022.27 1022.87 1023.46 1024.01 1024.52 1024.97 1025.35 1025.68 1025.95 1026.19 1026.39 1026.57 1026.72 1026.84 1026.91 1026.93 1026.89 1026.81 1026.71 1026.59 1026.50 1026.44 1026.42 1026.45 1026.50 1026.55 1026.57 1026.54 1026.45 1026.31 1026.12 1025.92 1025.73
1016.79 1017.17 1017.57 1018.00 1018.46 1018.94 1019.45 1019.98 1020.55 1021.15 1021.77 1022.40 1023.03 1023.62 1024.17 1024.65 1025.06 1025.41 1025.68 1025.90 1026.09 1026.25 1026.39 1026.50 1026.57 1026.61 1026.59 1026.54 1026.46 1026.38 1026.30 1026.26 1026.25 1026.29 1026.35 1026.41 1026.46 1026.48 1026.44 1026.34 1026.21 1026.03 1025.85
1016.08 1016.54 1017.00 1017.48 1017.95 1018.44 1018.94 1019.47 1020.02 1020.61 1021.22 1021.85 1022.48 1023.09 1023.66 1024.17 1024.60 1024.95 1025.23 1025.45 1025.64 1025.79 1025.93 1026.04 1026.14 1026.21 1026.25 1026.25 1026.22 1026.18 1026.14 1026.11 1026.11 1026.13 1026.18 1026.25 1026.30 1026.34 1026.34 1026.30 1026.20 1026.07 1025.90
1015.19 1015.76 1016.32 1016.87 1017.40 1017.92 1018.44 1018.96 1019.49 1020.04 1020.62 1021.22 1021.82 1022.42 1022.98 1023.49 1023.94 1024.31 1024.61 1024.85 1025.04 1025.21 1025.37 1025.52 1025.66 1025.78 1025.88 1025.96 1026.00 1026.01 1026.00 1025.98 1025.97 1025.97 1025.99 1026.03 1026.08 1026.12 1026.15 1026.15 1026.10 1026.01 1025.88
1014.15 1014.84 1015.51 1016.17 1016.78 1017.36 1017.91 1018.43 1018.94 1019.45 1019.97 1020.52 1021.07 1021.63 1022.17 1022.67 1023.13 1023.52 1023.85 1024.12 1024.36 1024.57 1024.76 1024.96 1025.15 1025.35 1025.52 1025.67 1025.77 1025.84 1025.86 1025.84 1025.81 1025.77 1025.74 1025.74 1025.77 1025.81 1025.85 1025.89 1025.90 1025.86 1025.77
1013.03 1013.82 1014.60 1015.36 1016.08 1016.74 1017.34 1017.88 1018.38 1018.85 1019.31 1019.78 1020.26 1020.75 1021.25 1021.74 1022.20 1022.62 1023.00 1023.32 1023.61 1023.87 1024.12 1024.37 1024.63 1024.89 1025.13 1025.34 1025.50 1025.61 1025.65 1025.63 1025.57 1025.49 1025.41 1025.37 1025.36 1025.39 1025.45 1025.53 1025.58 1025.61 1025.57
1011.91 1012.77 1013.64 1014.50 1015.31 1016.06 1016.72 1017.30 1017.80 1018.23 1018.63 1019.02 1019.42 1019.85 1020.29 1020.75 1021.22 1021.66 1022.08 1022.46 1022.81 1023.13 1023.44 1023.75 1024.06 1024.36 1024.65 1024.92 1025.12 1025.26 1025.31 1025.29 1025.21 1025.09 1024.98 1024.89 1024.85 1024.88 1024.95 1025.06 1025.17 1025.25 1025.27
1010.92 1011.79 1012.70 1013.62 1014.51 1015.34 1016.07 1016.69 1017.20 1017.61 1017.96 1018.28 1018.59 1018.94 1019.32 1019.75 1020.20 1020.67 1021.13 1021.56 1021.97 1022.34 1022.70 1023.04 1023.39 1023.72 1024.05 1024.33 1024.57 1024.73 1024.80 1024.78 1024.69 1024.56 1024.42 1024.31 1024.26 1024.28 1024.36 1024.50 1024.65 1024.78 1024.85
1010.13 1010.96 1011.85 1012.79 1013.73 1014.61 1015.39 1016.06 1016.59 1016.99 1017.30 1017.54 1017.78 1018.05 1018.37 1018.75 1019.18 1019.65 1020.13 1020.61 1021.05 1021.47 1021.85 1022.22 1022.57 1022.92 1023.25 1023.56 1023.81 1023.99 1024.08 1024.08 1024.01 1023.89 1023.76 1023.64 1023.59 1023.61 1023.71 1023.86 1024.04 1024.21 1024.32
1009.62 1010.33 1011.16 1012.06 1012.98 1013.89 1014.70 1015.40 1015.95 1016.35 1016.62 1016.81 1016.98 1017.17 1017.42 1017.74 1018.14 1018.60 1019.09 1019.58 1020.05 1020.48 1020.88 1021.24 1021.59 1021.93 1022.26 1022.57 1022.83 1023.04 1023.16 1023.21 1023.18 1023.10 1022.99 1022.90 1022.86 1022.89 1022.99 1023.15 1023.34 1023.53 1023.66
1009.38 1009.94 1010.63 1011.44 1012.31 1013.19 1014.01 1014.71 1015.26 1015.66 1015.91 1016.06 1016.16 1016.28 1016.46 1016.72 1017.07 1017.50 1017.98 1018.46 1018.93 1019.36 1019.75 1020.10 1020.44 1020.76 1021.08 1021.38 1021.66 1021.90 1022.08 1022.19 1022.22 1022.20 1022.15 1022.11 1022.09 1022.13 1022.23 1022.38 1022.56 1022.74 1022.87
1009.37 1009.74 1010.27 1010.93 1011.70 1012.51 1013.29 1013.98 1014.52 1014.90 1015.13 1015.24 1015.29 1015.35 1015.46 1015.66 1015.96 1016.34 1016.78 1017.24 1017.69 1018.11 1018.48 1018.82 1019.13 1019.44 1019.74 1020.05 1020.35 1020.63 1020.87 1021.05 1021.17 1021.23 1021.25 1021.26 1021.28 1021.32 1021.41 1021.54 1021.70 1021.85 1021.97
1009.49 1009.68 1010.01 1010.51 1011.14 1011.84 1012.55 1013.19 1013.71 1014.06 1014.27 1014.35 1014.36 1014.36 1014.41 1014.54 1014.78 1015.11 1015.51 1015.94 1016.36 1016.76 1017.11 1017.43 1017.72 1018.01 1018.31 1018.63 1018.96 1019.28 1019.58 1019.84 1020.05 1020.19 1020.28 1020.35 1020.40 1020.46 1020.54 1020.64 1020.76 1020.88 1020.97
1009.65 1009.66 1009.81 1010.13 1010.61 1011.18 1011.79 1012.35 1012.82 1013.14 1013.32 1013.37 1013.34 1013.30 1013.30 1013.37 1013.55 1013.83 1014.18 1014.57 1014.96 1015.33 1015.67 1015.97 1016.26 1016.54 1016.84 1017.17 1017.52 1017.89 1018.24 1018.57 1018.85 1019.07 1019.24 1019.36 1019.45 1019.52 1019.60 1019.68 1019.77 1019.85 1019.92
Thickness
5689 5685 5681 5678 5674 5672 5669 5667 5665 5664 5662 5661 5660 5659 5658 5657 5657 5656 5656 5656 5656 5657 5657 5657 5658 5658 5659 5659 5659 5659 5660 5662 5663 5665 5667 5670 5672 5674 5676 5678 5680 5682 5685
5693 5686 5682 5678 5674 5671 5668 5665 5663 5661 5659 5658 5656 5655 5654 5653 5652 5651 5651 5651 5651 5651 5651 5652 5652 5652 5653 5652 5652 5653 5653 5654 5656 5658 5659 5661 5665 5667 5669 5671 5673 5675 5677
5693 5686 5681 5677 5674 5670 5666 5663 5661 5658 5656 5654 5653 5651 5650 5649 5648 5647 5646 5646 5646 5645 5645 5646 5646 5646 5646 5646 5646 5646 5647 5648 5649 5649 5650 5653 5656 5659 5661 5663 5665 5667 5670
5692 5686 5681 5677 5673 5669 5665 5662 5658 5656 5653 5651 5649 5647 5646 5644 5643 5642 5642 5641 5641 5640 5640 5640 5640 5640 5640 5640 5640 5639 5640 5641 5641 5641 5642 5644 5647 5651 5653 5655 5657 5659 5661
5692 5686 5681 5676 5672 5668 5664 5660 5657 5653 5650 5648 5646 5644 5642 5640 5639 5638 5637 5636 5635 5635 5634 5634 5633 5633 5633 5633 5633 5633 5633 5634 5633 5633 5634 5636 5639 5644 5645 5646 5648 5650 5653
5692 5686 5680 5675 5670 5666 5662 5659 5655 5651 5648 5645 5643 5640 5638 5636 5635 5633 5632 5631 5630 5629 5628 5628 5627 5627 5627 5627 5626 5626 5626 5627 5626 5626 5627 5628 5632 5635 5637 5638 5640 5642 5644
5691 5685 5678 5674 5670 5665 5661 5657 5653 5650 5646 5643 5640 5637 5635 5633 5631 5629 5628 5626 5625 5624 5623 5622 5621 5621 5621 5620 5620 5620 5620 5620 5620 5620 5619 5620 5624 5627 5629 5630 5631 5633 5634
5690 5685 5677 5673 5669 5665 5660 5656 5652 5648 5644 5641 5638 5635 5632 5630 5628 5626 5624 5622 5620 5619 5618 5617 5616 5615 5614 5614 5613 5613 5613 5614 5613 5613 5613 5613 5616 5618 5620 5620 5621 5623 5625
5689 5684 5677 5672 5668 5664 5659 5655 5651 5647 5643 5639 5636 5632 5630 5627 5624 5622 5620 5618 5616 5614 5613 5612 5610 5609 5608 5608 5607 5607 5607 5607 5606 5606 5605 5605 5607 5609 5610 5611 5612 5613 5614
5688 5684 5678 5672 5667 5663 5659 5654 5650 5646 5642 5638 5634 5630 5627 5624 5621 5619 5616 5614 5612 5610 5608 5606 5605 5603 5602 5602 5601 5600 5600 5600 5599 5598 5597 5597 5598 5599 5600 5601 5602 5603 5604
5686 5683 5679 5673 5668 5663 5658 5654 5649 5645 5641 5636 5632 5628 5624 5621 5618 5616 5613 5610 5608 5606 5603 5601 5600 5598 5597 5596 5595 5594 5593 5592 5591 5590 5589 5588 5588 5589 5590 5591 5591 5592 5593
5687 5684 5681 5676 5671 5665 5659 5654 5649 5644 5640 5635 5631 5626 5622 5619 5617 5614 5611 5607 5604 5601 5599 5597 5595 5594 5592 5590 5589 5588 5586 5585 5584 5582 5581 5579 5579 5579 5580 5580 5580 5581 5582
5690 5685 5681 5678 5673 5667 5661 5655 5649 5644 5639 5634 5630 5625 5621 5618 5615 5612 5608 5604 5601 5598 5595 5593 5591 5589 5587 5585 5583 5581 5579 5578 5576 5574 5572 5571 5569 5569 5569 5569 5569 5570 5570
5690 5686 5682 5678 5673 5668 5662 5657 5651 5645 5640 5635 5631 5626 5621 5617 5614 5610 5606 5602 5598 5595 5592 5590 5587 5585 5582 5580 5577 5575 5573 5570 5568 5566 5563 5562 5560 5559 5558 5558 5558 5559 5559
5691 5687 5682 5678 5673 5667 5662 5656 5651 5646 5641 5635 5630 5626 5621 5616 5612 5608 5604 5600 5596 5593 5589 5586 5583 5580 5577 5574 5571 5568 5565 5563 5560 5558 5555 5552 5550 5549 5548 5547 5547 5546 5547
5695 5689 5683 5678 5672 5667 5661 5656 5651 5645 5640 5634 5629 5624 5620 5615 5610 5606 5601 5597 5593 5589 5585 5581 5578 5574 5571 5568 5564 5561 5558 5555 5552 5549 5546 5543 5540 5538 5537 5536 5535 5534 5534
5699 5692 5685 5678 5672 5666 5660 5654 5648 5643 5638 5633 5628 5622 5617 5612 5607 5603 5598 5594 5590 5585 5580 5575 5571 5568 5564 5560 5557 5553 5550 5546 5543 5540 5537 5534 5531 5528 5526 5524 5523 5522 5521
5700 5693 5687 5679 5671 5664 5658 5651 5646 5641 5636 5631 5626 5620 5614 5609 5604 5599 5594 5590 5585 5580 5575 5569 5564 5560 5555 5551 5548 5545 5542 5538 5534 5531 5527 5524 5521 5518 5515 5512 5511 5509 5508
5703 5695 5686 5678 5670 5662 5655 5648 5643 5638 5634 5629 5623 5618 5612 5606 5601 5596 5591 5586 5580 5575 5569 5563 5558 5553 5547 5543 5539 5536 5533 5529 5526 5522 5518 5514 5511 5507 5504 5500 5498 5496 5494
5704 5695 5686 5676 5668 5659 5651 5644 5638 5634 5631 5626 5622 5616 5610 5604 5598 5592 5587 5581 5575 5569 5563 5557 5551 5546 5540 5535 5531 5528 5524 5521 5517 5514 5510 5505 5502 5498 5494 5490 5486 5483 5481
5701 5692 5684 5675 5666 5657 5650 5643 5637 5633 5628 5624 5620 5614 5608 5601 5595 5588 5583 5576 5571 5565 5559 5552 5544 5538 5532 5525 5517 5513 5513 5512 5510 5507 5502 5497 5492 5488 5484 5480 5476 5472 5468
5698 5689 5681 5673 5664 5657 5650 5643 5636 5630 5625 5620 5615 5610 5605 5598 5592 5585 5579 5573 5566 5560 5553 5547 5539 5531 5524 5517 5508 5500 5498 5502 5505 5503 5496 5489 5484 5479 5474 5470 5465 5461 5457
5691 5684 5678 5670 5662 5654 5645 5635 5628 5622 5618 5614 5611 5607 5603 5596 5589 5583 5576 5568 5562 5555 5550 5543 5535 5526 5518 5511 5505 5495 5486 5488 5490 5491 5489 5483 5476 5470 5465 5460 5455 5450 5446
5685 5679 5672 5665 5658 5649 5640 5632 5625 5621 5619 5618 5611 5604 5598 5591 5585 5578 5571 5564 5557 5551 5545 5538 5531 5523 5513 5504 5497 5494 5488 5481 5473 5470 5472 5471 5467 5461 5455 5450 5446 5441 5436
5678 5672 5665 5659 5652 5645 5637 5630 5622 5618 5615 5608 5601 5597 5592 5586 5580 5573 5566 5558 5551 5545 5539 5532 5525 5517 5511 5503 5494 5487 5478 5470 5464 5455 5452 5455 5453 5451 5446 5440 5436 5431 5426
5670 5664 5657 5651 5645 5638 5631 5624 5617 5612 5606 5599 5595 5591 5586 5581 5576 5570 5561 5553 5546 5539 5532 5525 5517 5510 5504 5497 5489 5482 5474 5465 5460 5451 5445 5442 5439 5439 5435 5430 5425 5420 5415